Вернуться в каталог

STARLINK-35212

АктивенСвязьVLEO
NORAD 65496·PAYLOAD·🇺🇸 United States

Запущен Sep 5, 2025 с Cape Canaveral Space Force Station

Loading…

Ближайшие Пролёты (ближайшие 24 часа)

TLE

СвежийSource: CelesTrak SupGP

Эпоха: Sep 14, 2026, 22:14 UTC

1 65496C 25198E   26257.92687500 -.00065615  00000+0 -19395-2 0  2574
2 65496  53.1564 109.5110 0001321  86.1537  84.0493 15.34408938    14

Отслеживайте STARLINK-35212 в реальном времени с AllMySat

Download on the App Store